Home   Weather   Sonneberg   Past weeks

Flag for Germany Past Weather in Sonneberg, Thuringia, Germany — Yesterday and Last 2 Weeks

Now
45 °F

Fog.


Feels Like: 45 °F
Forecast: 46 / 64 °F
Wind: 2 mph from Northeast

Location: Hof Airport

Current Time: Sep 26, 2016 at 7:33:31 AM

Latest Report: Sep 26, 2016 at 6:50 AM


Visibility: 2 mi

Pressure: 30.15 "Hg

Humidity: 93%

Dew Point: 43 °F

Location of SonnebergLocation

Past Weather in Sonneberg — Graph

°F

Sonneberg Temperature Yesterday

Maximum temperature yesterday: 70 °F (at 3:20 PM)
Minimum temperature yesterday: 54 °F (at 9:20 AM)
Average temperature yesterday: 64 °F

High & Low Weather Summary for the Past Weeks

 TemperatureHumidityPressure
High82 °F (Sep 11, 4:20 PM)94% (Sep 17, 9:20 AM)30.33 "Hg (Sep 17, 9:20 AM)
Low39 °F (Sep 21, 7:20 AM)26% (Sep 13, 3:20 PM)29.86 "Hg (Sep 17, 11:50 AM)
Average63 °F62%30.08 "Hg
* Reported Sep 10 5:20 PM — Sep 25 5:50 PM, Sonneberg, Weather by CustomWeather, © 2016

Note: Actual official high and low records may vary slightly from our data, if they occured in-between our weather recording intervals... More about our weather records

Advertising

Sonneberg Weather History for the Previous 24 Hours

Scroll right to see more
 ConditionsComfort  
Time TempWeatherWind HumidityBarometerVisibility
5:50 PM
Sun, Sep 25
68 °FPassing clouds.3 mph46%30.12 "HgN/A
5:20 PM66 °FPassing clouds.6 mph49%30.12 "HgN/A
4:50 PM68 °FPassing clouds.5 mph43%30.12 "HgN/A
4:20 PM68 °FPassing clouds.5 mph43%30.12 "HgN/A
3:50 PM68 °FSunny.3 mph43%30.12 "Hg10 mi
3:20 PM70 °FSunny.3 mph43%30.12 "Hg10 mi
2:50 PM68 °FSunny.3 mph49%30.15 "Hg10 mi
2:20 PM66 °FPassing clouds.6 mph52%30.15 "HgN/A
1:50 PM66 °FSunny.3 mph46%30.15 "Hg10 mi
1:20 PM66 °FSunny.6 mph49%30.15 "Hg10 mi
12:50 PM66 °FPassing clouds.6 mph49%30.18 "HgN/A
12:20 PM64 °FPassing clouds.6 mph52%30.18 "HgN/A
11:50 AM63 °FPassing clouds.5 mph56%30.18 "HgN/A
11:20 AM63 °FPassing clouds.6 mph56%30.18 "HgN/A
10:50 AM61 °FPassing clouds.7 mph59%30.18 "HgN/A
10:20 AM57 °FPassing clouds.5 mph67%30.18 "HgN/A
9:50 AM55 °FPassing clouds.6 mph72%30.21 "HgN/A
9:20 AM54 °FPassing clouds.6 mph77%30.21 "HgN/A
Weather by CustomWeather, © 2016

See weather overviewHow to use our weather pages